Location: *
(48.4333°N, 5.0333°W)
Time: 16:17:11
(UTC+00:00)

STARLINK-2726 - Pass Details

Date: 31 July 2021
Orbit: 546 x 548 km, 53.1° (Epoch: 28 September)

Event Time Altitude Azimuth Distance (km) Brightness Sun altitude
Rises 20:38:23 0° 287° (WNW) 2,705 8.8 -6.4°
Reaches altitude 10° 20:41:25 10° 264° (W) 1,809 7.0 -6.8°
Maximum altitude 20:43:44 15° 229° (SW) 1,525 6.0 -7.1°
Drops below altitude 10° 20:46:02 10° 195° (SSW) 1,802 6.0 -7.4°
Enters shadow 20:48:39 - 173° (S) 2,554 6.6 -7.8°
